TimeEDT,TemperatureF,Dew PointF,Humidity,Sea Level PressureIn,VisibilityMPH,Wind Direction,Wind SpeedMPH,Gust SpeedMPH,PrecipitationIn,Events,Conditions,WindDirDegrees,DateUTC
12:53 AM,55.0,39.0,55,30.24,10.0,Calm,Calm,-,N/A,,Overcast,0,2013-04-04 04:53:00
1:53 AM,54.0,39.9,59,30.23,10.0,Calm,Calm,-,N/A,,Overcast,0,2013-04-04 05:53:00
2:53 AM,53.1,39.0,59,30.21,10.0,Calm,Calm,-,N/A,,Overcast,0,2013-04-04 06:53:00
3:53 AM,53.1,37.0,55,30.20,10.0,Calm,Calm,-,N/A,,Overcast,0,2013-04-04 07:53:00
4:53 AM,51.1,39.9,66,30.20,10.0,ENE,3.5,-,N/A,,Overcast,60,2013-04-04 08:53:00
5:53 AM,51.1,39.0,63,30.19,10.0,Calm,Calm,-,0.00,,Overcast,0,2013-04-04 09:53:00
6:53 AM,51.1,37.0,59,30.19,10.0,Variable,4.6,-,N/A,,Overcast,0,2013-04-04 10:53:00
7:53 AM,52.0,34.0,50,30.20,10.0,East,6.9,-,N/A,,Overcast,80,2013-04-04 11:53:00
8:53 AM,52.0,34.0,50,30.19,10.0,ENE,10.4,16.1,N/A,,Overcast,70,2013-04-04 12:53:00
9:53 AM,48.0,41.0,77,30.18,10.0,Variable,5.8,-,0.05,,Overcast,0,2013-04-04 13:53:00
10:51 AM,46.4,41.0,81,30.16,3.0,East,6.9,-,0.04,Rain,Rain,80,2013-04-04 14:51:00
10:53 AM,46.0,41.0,83,30.16,3.0,ENE,10.4,16.1,0.05,Rain,Rain,70,2013-04-04 14:53:00
11:01 AM,46.4,41.0,81,30.14,2.0,East,10.4,20.7,0.04,Rain,Heavy Rain,80,2013-04-04 15:01:00
11:30 AM,44.6,42.8,93,30.15,5.0,Variable,4.6,-,0.11,Rain,Light Rain,0,2013-04-04 15:30:00
11:53 AM,45.0,42.1,90,30.14,6.0,ENE,9.2,-,0.11,,Overcast,70,2013-04-04 15:53:00
12:02 PM,44.6,42.8,93,30.14,3.0,ENE,5.8,16.1,0.01,Rain,Rain,60,2013-04-04 16:02:00
12:09 PM,44.6,42.8,93,30.13,1.8,ENE,5.8,-,0.03,Rain,Rain,60,2013-04-04 16:09:00
12:25 PM,44.6,42.8,93,30.13,2.5,ENE,8.1,17.3,0.06,Rain,Light Rain,70,2013-04-04 16:25:00
12:53 PM,45.0,43.0,93,30.12,1.5,Variable,5.8,-,0.14,Rain,Rain,0,2013-04-04 16:53:00
1:09 PM,44.6,42.8,93,30.12,3.0,Variable,4.6,-,0.02,Rain,Light Rain,0,2013-04-04 17:09:00
1:50 PM,44.6,42.8,93,30.09,2.5,ENE,8.1,-,0.05,Rain,Rain,60,2013-04-04 17:50:00
1:53 PM,45.0,42.1,90,30.09,1.8,ENE,5.8,-,0.06,Rain,Heavy Rain,60,2013-04-04 17:53:00
2:01 PM,44.6,42.8,93,30.09,3.0,NE,9.2,-,0.00,Rain,Light Rain,50,2013-04-04 18:01:00
2:12 PM,44.6,42.8,93,30.08,2.0,NE,5.8,-,0.04,Rain,Heavy Rain,50,2013-04-04 18:12:00
2:19 PM,44.6,42.8,93,30.07,1.8,Variable,5.8,-,0.06,Rain,Rain,0,2013-04-04 18:19:00
2:26 PM,44.6,42.8,93,30.06,2.0,ENE,8.1,-,0.08,Rain,Rain,70,2013-04-04 18:26:00
2:53 PM,45.0,43.0,93,30.06,6.0,ENE,4.6,-,0.13,Rain,Light Rain,70,2013-04-04 18:53:00
3:23 PM,44.6,42.8,93,30.05,7.0,Calm,Calm,-,0.01,Rain,Light Rain,0,2013-04-04 19:23:00
3:53 PM,45.0,43.0,93,30.02,2.0,Variable,4.6,-,0.02,Rain,Rain,0,2013-04-04 19:53:00
4:05 PM,46.4,42.8,87,30.01,3.0,ENE,4.6,-,0.02,Rain,Light Rain,60,2013-04-04 20:05:00
4:29 PM,46.4,44.6,93,30.00,1.8,Variable,3.5,-,0.05,Rain,Rain,0,2013-04-04 20:29:00
4:40 PM,46.4,42.8,87,30.00,3.0,Variable,3.5,-,0.06,Rain,Light Rain,0,2013-04-04 20:40:00
4:53 PM,46.0,43.0,89,29.99,1.2,NE,8.1,-,0.10,Rain,Rain,50,2013-04-04 20:53:00
5:10 PM,44.6,42.8,93,29.98,2.0,NNE,4.6,-,0.02,Rain,Rain,30,2013-04-04 21:10:00
5:21 PM,46.4,44.6,93,29.97,6.0,Variable,5.8,-,0.02,,Overcast,0,2013-04-04 21:21:00
5:53 PM,45.0,43.0,93,29.98,3.0,Variable,4.6,-,0.03,Rain,Light Rain,0,2013-04-04 21:53:00
6:01 PM,44.6,42.8,93,29.98,2.5,Variable,5.8,-,0.00,Rain,Light Rain,0,2013-04-04 22:01:00
6:11 PM,44.6,42.8,93,29.98,3.0,Variable,5.8,-,0.00,Rain,Light Rain,0,2013-04-04 22:11:00
6:23 PM,44.6,42.8,93,29.99,2.5,Variable,4.6,-,0.01,Rain,Light Rain,0,2013-04-04 22:23:00
6:35 PM,44.6,42.8,93,29.99,2.0,Variable,4.6,-,0.02,Rain,Light Rain,0,2013-04-04 22:35:00
6:44 PM,44.6,42.8,93,29.99,1.8,Variable,3.5,-,0.03,Rain,Light Rain,0,2013-04-04 22:44:00
6:53 PM,45.0,43.0,93,29.98,2.0,Variable,5.8,-,0.03,Rain,Light Rain,0,2013-04-04 22:53:00
7:05 PM,44.6,42.8,93,29.97,4.0,Calm,Calm,-,0.00,,Overcast,0,2013-04-04 23:05:00
7:12 PM,44.6,42.8,93,29.97,3.0,Variable,4.6,-,0.00,,Overcast,0,2013-04-04 23:12:00
7:53 PM,45.0,43.0,93,29.98,7.0,Variable,3.5,-,0.01,,Overcast,0,2013-04-04 23:53:00
8:53 PM,44.1,42.1,93,29.96,9.0,Variable,3.5,-,N/A,,Overcast,0,2013-04-05 00:53:00
9:53 PM,44.1,41.0,89,29.97,10.0,Variable,6.9,-,N/A,,Overcast,0,2013-04-05 01:53:00
10:53 PM,43.0,41.0,93,29.97,5.0,Calm,Calm,-,N/A,,Overcast,0,2013-04-05 02:53:00
11:00 PM,42.8,41.0,93,29.97,5.0,Calm,Calm,-,N/A,,Overcast,0,2013-04-05 03:00:00
11:53 PM,43.0,41.0,93,29.97,7.0,Calm,Calm,-,N/A,,Overcast,0,2013-04-05 03:53:00